Notices

What's New in latest Release from April 7th, 2021:

- Updated Glossary, including Speed of Maximum Gust, and Total Hourly Precipitation

- Updated national and regional climate services offices contacts and prices information

- Addition of station inventory lists for 1981-2010, 1971-2000, and 1961-1990 Normals.

If you haven't already, please take our survey and provide feedback about our website: https://eccc.sondage-survey.ca/f/LanguageSelection.aspx?s=442ca660-fcf1-47c0-95a9-59707d6fd709

Hourly Data Report for March 03, 2006

TORONTO CITY
ONTARIO

43°40'00.000" N
79°24'00.000" W
112.50 m
6158355
71508
XTO

Download Data

Hourly Data (March 2006)
Hourly Data Report for March 3, 2006
TIME
LST
Temp Definition
°C
Dew Point Definition
°C
Rel Hum Definition
%
Precip. Amount Definition
mm

Wind Dir Definition
10's deg

Wind Spd Definition
km/h
Visibility Definition
km
Stn Press Definition
kPa
Hmdx Definition


Wind Chill Definition


Weather Definition


00:00 -6.4 -13.7 56   LegendMM LegendMM   100.30     LegendNANA
01:00 -7.2 -14.7 55   LegendMM LegendMM   100.39     LegendNANA
02:00 -7.9 -15.0 57   LegendMM LegendMM   100.48     LegendNANA
03:00 -8.2 -15.5 56   LegendMM LegendMM   100.49     LegendNANA
04:00 -8.2 -15.7 55   LegendMM LegendMM   100.52     LegendNANA
05:00 -8.6 -15.7 56   LegendMM LegendMM   100.55     LegendNANA
06:00 -9.0 -15.8 58   LegendMM LegendMM   100.61     LegendNANA
07:00 -9.3 -15.8 59   LegendMM LegendMM   100.69     LegendNANA
08:00 -9.1 -15.8 58   LegendMM LegendMM   100.75     LegendNANA
09:00 -8.3 -14.9 59   LegendMM LegendMM   100.80     LegendNANA
10:00 -7.2 -14.5 56   LegendMM LegendMM   100.84     LegendNANA
11:00 -5.8 -13.5 55   LegendMM LegendMM   100.82     LegendNANA
12:00 -5.1 -12.8 55   LegendMM LegendMM   100.81     LegendNANA
13:00 -4.5 -12.7 53   LegendMM LegendMM   100.75     LegendNANA
14:00 -3.9 -11.8 54   LegendMM LegendMM   100.70     LegendNANA
15:00 -3.6 -11.0 56   LegendMM LegendMM   100.71     LegendNANA
16:00 -3.6 -11.0 56   LegendMM LegendMM   100.74     LegendNANA
17:00 -3.6 -10.2 60   LegendMM LegendMM   100.72     LegendNANA
18:00 -3.7 -9.9 62   LegendMM LegendMM   100.74     LegendNANA
19:00 -4.0 -9.6 65   LegendMM LegendMM   100.76     LegendNANA
20:00 -4.3 -10.0 64   LegendMM LegendMM   100.78     LegendNANA
21:00 -4.5 -9.7 67   LegendMM LegendMM   100.74     LegendNANA
22:00 -3.9 -9.3 66   LegendMM LegendMM   100.74     LegendNANA
23:00 -3.8 -9.7 64   LegendMM LegendMM   100.74     LegendNANA

Notes on Data Quality.

Legend

  • E = Estimated
  • M = Missing
  • NA = Not Available*
  • [empty] = Indicates an unobserved value
Date modified: